Lincoln, NE

8:27 PM CST on November 14, 2019 (GMT -0600)
Lincoln Municipal

Weather History for KLNK - October, 2019

Change the Weather History Date:

Tuesday, October 15, 2019

  Actual Average Record
Temperature  
Mean Temperature 54 °F 54 °F  
Max Temperature 61 °F 66 °F 91 °F (1938)
Min Temperature 48 °F 41 °F 22 °F (1943)
Degree Days  
Heating Degree Days 10 12  
Month to date heating degree days 142  
Since 1 July heating degree days 240  
Cooling Degree Days 0 0  
Month to date cooling degree days 12  
Year to date cooling degree days 1170  
Growing Degree Days 4 (Base 50)    
Moisture  
Dew Point 36 °F    
Average Humidity 53    
Maximum Humidity 86    
Minimum Humidity 23    
Precipitation  
Precipitation 0.00 in 0.07 in 1.12 in (1928)
Month to date precipitation 1.05  
Year to date precipitation 25.65  
Snow  
Snow 0.00 in 0.00 in T in (1969)
Month to date snowfall 0.1  
Since 1 July snowfall 0.1  
Since 1 September snowfall 0.1  
Snow Depth -    
Sea Level Pressure  
Sea Level Pressure 30.03 in    
Wind  
Wind Speed 12 mph (NNW)    
Max Wind Speed 28 mph    
Max Gust Speed 39 mph    
Visibility 10 miles    
Events      
T = Trace of Precipitation, MM = Missing Value Source: NWS Daily Summary

Daily Weather History Graph

Daily Weather History Graph

Search for Another Location

Airport or City:

Astronomy

Oct. 15, 2019 Rise Set
Actual Time 7:38 AM CDT 6:46 PM CDT
Civil Twilight 7:10 AM CDT 7:14 PM CDT
Nautical Twilight 6:38 AM CDT 7:46 PM CDT
Astronomical Twilight 6:06 AM CDT 8:17 PM CDT
Moon 8:06 PM CDT 9:10 AM CDT
Length of Visible Light 12h 03m
Length of Day
11h 08m
Full, 97% of the Moon is Illuminated
Oct 15
Full
Oct 21
Last Quarter
Oct 27
New
Nov 4
First Quarter
Nov 12
Full

Hourly Weather History & Observations

Time (CDT) Temp. Dew Point Humidity Pressure Visibility Wind Dir Wind Speed Gust Speed Precip Events Conditions
12:54 AM 55.0 °F 46.9 °F 74% 29.78 in 10.0 mi SE 3.5 mph - N/A   Clear
1:54 AM 54.0 °F 48.0 °F 80% 29.78 in 10.0 mi SSW 3.5 mph - N/A   Clear
2:54 AM 51.1 °F 46.9 °F 86% 29.81 in 10.0 mi SSW 4.6 mph - N/A   Clear
3:54 AM 54.0 °F 45.0 °F 72% 29.85 in 10.0 mi NNW 11.5 mph - N/A   Clear
4:54 AM 52.0 °F 41.0 °F 66% 29.88 in 10.0 mi NNW 10.4 mph - N/A   Clear
5:54 AM 50.0 °F 39.9 °F 68% 29.93 in 10.0 mi NW 6.9 mph - N/A   Clear
6:54 AM 48.9 °F 39.0 °F 69% 29.98 in 10.0 mi NW 9.2 mph - N/A   Clear
7:54 AM 48.0 °F 37.9 °F 68% 30.00 in 10.0 mi NW 10.4 mph - N/A   Clear
8:54 AM 50.0 °F 39.0 °F 66% 30.04 in 10.0 mi NNW 18.4 mph 27.6 mph N/A   Clear
9:54 AM 52.0 °F 36.0 °F 54% 30.05 in 10.0 mi NNW 20.7 mph 33.4 mph N/A   Clear
10:54 AM 55.0 °F 32.0 °F 42% 30.07 in 10.0 mi NNW 23.0 mph 38.0 mph N/A   Clear
11:54 AM 57.0 °F 30.0 °F 36% 30.08 in 10.0 mi NNW 27.6 mph 38.0 mph N/A   Clear
12:54 PM 59.0 °F 30.9 °F 35% 30.08 in 10.0 mi NNW 21.9 mph 34.5 mph N/A   Clear
1:54 PM 59.0 °F 32.0 °F 36% 30.06 in 10.0 mi NNW 24.2 mph 35.7 mph N/A   Clear
2:54 PM 60.1 °F 30.0 °F 32% 30.06 in 10.0 mi NNW 27.6 mph 39.1 mph N/A   Clear
3:54 PM 60.1 °F 28.0 °F 30% 30.06 in 10.0 mi NNW 27.6 mph 38.0 mph N/A   Clear
4:54 PM 57.9 °F 28.9 °F 33% 30.09 in 10.0 mi NNW 26.5 mph 36.8 mph N/A   Clear
5:54 PM 54.0 °F 30.0 °F 40% 30.12 in 10.0 mi North 26.5 mph 34.5 mph N/A   Clear
6:54 PM 51.1 °F 30.9 °F 46% 30.16 in 10.0 mi NNW 16.1 mph - N/A   Mostly Cloudy
7:54 PM 51.1 °F 30.9 °F 46% 30.17 in 10.0 mi NNW 18.4 mph 32.2 mph N/A   Overcast
8:54 PM 48.9 °F 32.0 °F 52% 30.20 in 10.0 mi NNW 15.0 mph - N/A   Mostly Cloudy
9:54 PM 48.9 °F 33.1 °F 54% 30.21 in 10.0 mi NNW 15.0 mph - N/A   Overcast
10:54 PM 48.0 °F 33.1 °F 56% 30.22 in 10.0 mi NNW 12.7 mph - N/A   Overcast
11:54 PM 48.0 °F 34.0 °F 58% 30.23 in 10.0 mi NNW 17.3 mph - N/A   Overcast